Wind_Speed
4 4 3 3 3 3 3 4 4 5 6 7 7 8 8 8 7 7 7 6 5 5 4 4 3 3 3 2 2 2 2 2 2 2 2 1 1 1 1 2 2 3 3
4 4 4 4 5 4 5 5 6 7 8 8 8 8 8 8 9 9 8 7 6 6 5 5 4 4 3 3 3 2 2 2 2 2 2 1 1 1 1 2 2 2 2
5 5 6 6 6 6 6 7 8 9 9 10 10 10 10 10 10 10 9 8 8 7 7 6 6 5 4 4 4 3 3 3 3 2 2 2 2 2 1 1 1 2 1
7 7 7 7 7 7 8 8 9 10 11 11 11 11 11 11 11 11 11 10 9 9 8 8 7 6 6 5 5 4 4 4 4 4 3 3 3 2 2 1 0 1 1
9 9 9 9 9 9 9 10 11 11 12 13 13 13 13 13 13 12 12 11 11 10 10 9 9 8 7 6 6 6 5 5 5 5 4 4 3 3 3 2 2 1 1
10 10 10 10 10 10 11 12 13 13 14 14 15 15 14 15 15 14 14 13 13 12 11 11 10 9 8 8 7 7 6 6 6 6 5 5 5 4 4 4 3 3 2
10 10 10 10 11 12 13 13 14 14 15 15 16 16 16 17 17 16 15 15 14 13 13 12 12 11 10 9 9 8 8 7 7 7 7 6 6 6 5 5 5 4 3
11 11 11 12 12 13 14 14 14 15 16 16 17 18 18 18 18 18 17 16 16 15 15 14 13 13 12 11 10 9 9 8 9 8 8 8 7 7 6 6 6 5 5
12 13 13 13 14 14 14 15 16 16 16 18 18 19 19 19 19 19 19 18 18 17 16 16 15 14 14 13 12 11 10 10 10 10 9 9 8 8 8 8 7 7 6
13 14 15 15 15 15 16 16 16 17 18 19 19 20 20 20 20 20 20 20 19 19 18 17 17 16 15 14 13 13 12 11 11 11 10 10 10 9 9 8 8 8 8
14 15 16 16 16 16 16 17 17 17 18 19 20 20 20 20 21 21 21 21 21 20 20 20 19 18 17 16 15 14 13 13 13 12 11 11 11 11 11 9 9 9 9
16 16 16 17 17 17 17 18 18 18 18 19 19 20 20 21 22 22 23 23 23 23 22 21 21 20 19 18 17 16 15 14 14 13 12 12 12 11 11 11 11 11 11
17 17 18 17 18 18 18 18 19 19 19 20 21 21 21 22 23 24 23 24 24 24 24 23 22 22 20 20 19 18 16 16 15 15 14 14 13 13 13 12 12 12 12
18 18 18 18 18 18 18 18 19 19 19 20 21 21 22 23 24 24 24 24 24 25 25 24 23 22 22 21 21 20 18 18 17 16 16 16 15 15 14 13 14 14 14
18 19 18 18 19 18 18 18 19 19 20 21 21 22 23 24 25 26 27 26 25 25 25 25 24 23 23 22 22 22 21 19 19 19 19 17 16 15 16 15 15 15 15
19 19 19 19 17 18 18 19 19 20 21 21 22 22 23 23 24 27 27 26 26 25 24 24 25 24 23 23 22 21 21 21 21 20 20 19 19 18 18 18 17 17 17
18 17 18 18 17 18 18 19 20 21 21 21 22 22 23 23 23 24 24 23 23 24 25 24 24 24 23 23 22 22 22 22 22 22 21 21 20 19 19 19 19 19 19
18 17 16 17 18 18 18 19 21 21 22 22 22 22 23 23 22 23 23 23 22 22 22 23 23 23 23 22 22 23 23 23 23 23 22 22 22 21 21 20 21 20 20
18 18 17 18 18 18 18 20 21 22 22 22 22 22 23 22 22 21 21 21 21 22 22 22 23 23 22 22 22 23 23 22 23 24 23 23 23 23 23 22 22 22 21
18 18 17 19 19 19 19 21 22 22 22 22 22 22 22 23 22 21 21 21 21 22 23 23 23 23 23 24 23 23 23 23 22 23 23 23 24 25 24 24 23 23 23
18 18 19 20 20 19 21 22 22 22 21 21 22 22 22 21 21 21 20 20 21 23 23 23 24 23 23 23 23 23 23 23 23 23 23 24 24 24 24 23 24 24 24
19 20 19 20 20 21 21 22 22 22 21 21 21 21 20 20 20 20 20 20 21 22 23 23 24 24 22 23 24 24 23 23 24 24 23 23 23 23 22 22 23 24 24
20 20 20 21 21 21 22 22 22 22 22 21 20 20 20 20 20 20 20 21 21 22 22 22 23 22 22 22 23 23 24 24 24 24 24 23 22 22 22 22 22 23 23
20 21 21 21 21 22 22 23 23 22 22 22 21 21 20 20 20 21 21 22 22 21 21 22 22 22 22 23 24 24 24 24 23 23 23 22 22 21 21 22 22 23 24
21 21 22 21 22 22 23 23 23 23 23 23 23 23 21 21 22 22 22 21 21 21 22 22 22 22 22 22 23 23 23 23 22 22 22 22 22 22 22 22 22 22 23
20 21 21 22 22 23 23 24 24 25 25 25 24 23 23 23 22 22 22 21 22 22 22 21 22 22 22 22 22 22 23 23 22 22 22 22 22 21 21 21 21 22 22
Wind_Direction
337 345 339 335 325 316 308 305 303 300 297 299 300 303 305 304 304 303 303 303 303 303 304 308 312 320 323 330 343 2 10 15 26 32 32 24 23 37 63 80 92 95 93
316 321 313 311 311 301 294 291 291 291 288 289 291 292 293 295 296 296 296 296 295 295 294 293 295 297 303 312 321 330 342 351 5 12 16 5 360 14 39 63 89 92 91
299 300 297 297 296 292 285 283 284 285 284 284 284 285 286 286 289 290 290 290 288 287 285 284 285 288 293 300 310 315 320 327 335 333 343 349 347 353 356 32 77 83 83
287 286 288 289 285 284 282 280 280 279 279 279 279 279 280 281 282 285 285 284 283 281 280 279 280 284 290 294 301 307 311 315 320 322 325 330 335 337 329 324 360 50 61
280 279 282 280 279 278 277 276 276 276 275 275 275 275 275 275 276 279 280 278 277 277 276 276 276 278 284 290 295 298 302 307 309 311 314 312 315 313 306 298 289 275 269
277 279 279 279 277 275 273 272 273 274 274 273 273 272 272 272 271 273 274 274 273 272 273 274 274 275 278 282 286 289 291 294 297 298 301 300 296 289 286 286 277 269 252
276 276 277 278 275 273 273 274 274 274 273 273 273 272 272 271 269 268 269 268 268 268 269 271 272 273 274 277 279 283 284 284 285 287 288 291 289 281 278 281 273 267 257
273 273 275 273 272 274 275 274 274 275 274 272 272 272 272 272 269 267 266 266 265 265 266 268 269 269 271 274 276 278 280 281 283 281 281 282 284 280 277 276 272 268 262
268 271 272 271 273 274 275 274 274 275 275 274 273 273 274 273 268 266 266 266 264 264 264 265 266 267 268 270 273 276 277 278 282 281 279 278 277 275 275 272 271 270 267
270 274 273 270 271 272 273 275 274 275 277 277 275 274 273 272 268 266 265 264 264 262 263 262 263 265 267 268 272 275 277 277 278 277 275 274 275 275 274 273 270 270 267
270 272 272 271 272 272 274 276 275 276 279 279 277 273 271 270 268 266 265 264 262 261 261 261 262 263 265 268 270 273 274 277 275 275 272 273 275 277 272 270 269 267 266
266 268 272 274 271 274 276 276 276 276 281 282 279 276 273 271 269 268 266 264 262 260 259 260 260 261 263 266 269 271 273 276 276 278 272 273 274 275 271 268 268 267 265
264 266 271 276 274 275 276 278 277 277 280 280 279 279 277 274 272 270 267 266 263 261 259 258 259 260 262 264 266 267 269 272 275 275 271 273 272 271 270 271 269 269 268
261 261 263 269 270 271 276 280 280 281 284 284 282 278 278 275 274 270 268 266 265 265 261 258 258 259 262 264 264 264 265 267 271 270 268 270 272 270 269 273 272 270 269
259 257 258 264 269 273 276 278 282 285 287 286 283 280 279 279 277 272 268 267 265 267 261 257 257 259 262 263 264 262 262 264 267 269 270 271 270 270 269 271 272 268 268
259 256 257 261 267 273 277 279 282 286 289 286 286 286 283 281 278 274 268 267 265 263 264 259 256 257 261 263 262 263 262 263 265 267 269 270 270 269 269 270 270 270 270
263 263 261 265 269 274 278 282 284 287 289 289 288 288 286 282 281 276 269 266 266 265 263 259 255 257 260 261 261 262 263 263 262 263 265 265 266 267 269 270 270 269 270
274 275 266 274 276 278 280 285 287 289 290 289 288 288 285 284 281 276 270 265 264 265 265 261 258 259 260 261 261 261 261 261 262 261 263 263 263 265 266 267 268 268 268
273 275 277 276 277 280 286 287 289 290 290 289 290 289 285 282 280 275 268 264 263 263 263 261 260 261 262 263 262 261 260 261 261 261 262 262 263 263 264 264 265 266 267
274 274 276 275 275 281 288 289 289 290 289 290 291 289 286 283 282 275 270 265 264 263 262 262 260 263 263 263 262 260 260 260 262 262 259 260 262 263 263 263 262 265 265
273 273 275 276 277 280 286 288 289 290 289 288 288 288 287 284 282 277 273 266 265 264 264 262 260 261 263 262 260 258 256 257 260 261 259 260 263 263 263 261 261 262 263
273 273 275 278 280 281 286 287 288 288 288 287 288 285 285 283 281 281 276 270 267 265 264 262 260 259 263 262 258 257 255 256 258 261 262 263 263 262 262 261 261 261 261
271 272 276 277 279 283 286 287 287 287 287 287 288 288 286 285 280 279 280 272 267 266 265 264 262 259 261 261 257 256 256 257 258 260 260 261 262 261 262 261 261 260 260
270 272 274 274 278 282 285 287 286 287 287 288 290 289 284 283 283 280 280 277 270 267 267 265 262 261 262 262 259 257 257 257 256 257 259 259 260 261 262 261 261 260 260
277 272 272 273 276 279 283 285 285 286 285 286 287 286 285 283 283 281 282 277 270 268 268 266 263 263 263 261 258 256 256 256 256 256 257 259 261 261 262 262 262 262 261
279 276 273 275 277 279 283 285 286 285 285 285 285 284 285 284 282 283 283 273 269 268 268 266 264 264 262 261 258 256 256 255 256 258 259 259 261 262 263 264 263 263 262
Height
5920 5919 5919 5919 5919 5919 5918 5918 5918 5918 5918 5917 5917 5916 5916 5915 5914 5914 5913 5913 5912 5911 5910 5909 5908 5908 5907 5906 5905 5904 5904 5903 5902 5901 5900 5899 5898 5897 5896 5895 5895 5894 5894
5919 5919 5919 5919 5918 5918 5918 5918 5918 5918 5917 5917 5916 5916 5915 5915 5914 5914 5913 5912 5912 5911 5910 5909 5908 5908 5907 5906 5905 5905 5904 5903 5902 5901 5900 5899 5898 5897 5896 5895 5895 5894 5894
5918 5918 5918 5918 5918 5917 5917 5917 5917 5917 5916 5916 5916 5915 5915 5914 5914 5913 5912 5912 5911 5910 5909 5909 5908 5907 5907 5906 5905 5905 5904 5903 5902 5901 5900 5899 5898 5897 5896 5895 5895 5894 5894
5917 5917 5917 5917 5917 5916 5916 5916 5916 5916 5915 5915 5914 5914 5914 5913 5913 5912 5912 5911 5910 5910 5909 5908 5907 5907 5906 5906 5905 5904 5903 5902 5901 5900 5899 5898 5898 5897 5896 5895 5895 5894 5894
5916 5916 5916 5915 5915 5915 5915 5915 5914 5914 5914 5913 5913 5913 5912 5912 5912 5911 5911 5910 5909 5909 5908 5907 5906 5906 5905 5905 5904 5903 5902 5901 5900 5899 5899 5898 5897 5896 5896 5895 5895 5894 5894
5914 5914 5914 5914 5913 5913 5913 5913 5912 5912 5912 5912 5911 5911 5911 5910 5910 5909 5909 5908 5908 5907 5907 5906 5905 5905 5904 5904 5903 5902 5902 5901 5900 5899 5898 5897 5897 5896 5896 5895 5895 5894 5894
5912 5912 5912 5911 5911 5911 5911 5911 5910 5910 5910 5909 5909 5909 5908 5908 5908 5907 5907 5906 5906 5905 5905 5904 5904 5903 5903 5902 5902 5901 5900 5900 5899 5898 5897 5897 5896 5896 5895 5895 5894 5894 5893
5910 5910 5909 5909 5909 5909 5909 5908 5908 5908 5907 5907 5906 5906 5905 5905 5905 5905 5904 5904 5904 5903 5903 5902 5902 5901 5901 5900 5900 5900 5899 5898 5898 5897 5896 5896 5895 5895 5894 5894 5893 5893 5893
5907 5907 5907 5907 5906 5906 5906 5906 5905 5905 5904 5904 5903 5903 5902 5902 5902 5901 5901 5901 5901 5901 5900 5900 5900 5899 5899 5898 5898 5898 5897 5897 5896 5896 5895 5895 5894 5893 5893 5893 5892 5892 5892
5905 5905 5904 5904 5903 5903 5903 5902 5902 5902 5901 5900 5900 5899 5899 5898 5898 5898 5898 5898 5898 5898 5897 5897 5897 5896 5896 5896 5895 5895 5895 5895 5894 5894 5893 5892 5892 5891 5891 5891 5891 5890 5890
5902 5902 5901 5901 5900 5900 5899 5899 5898 5898 5897 5896 5896 5895 5894 5894 5894 5894 5894 5894 5894 5894 5894 5893 5893 5893 5893 5893 5893 5893 5892 5892 5892 5891 5891 5890 5890 5889 5889 5889 5888 5888 5888
5898 5898 5898 5897 5897 5897 5896 5895 5895 5894 5893 5892 5892 5891 5890 5890 5890 5889 5889 5889 5889 5889 5889 5889 5889 5889 5889 5889 5889 5889 5889 5889 5889 5888 5888 5888 5887 5887 5887 5886 5886 5886 5885
5895 5895 5895 5894 5894 5893 5892 5892 5891 5890 5889 5889 5888 5887 5886 5885 5885 5884 5884 5884 5884 5884 5884 5885 5885 5885 5885 5885 5885 5885 5886 5886 5886 5885 5885 5885 5884 5884 5884 5884 5884 5883 5883
5890 5890 5890 5891 5890 5889 5888 5888 5887 5886 5885 5884 5883 5882 5881 5880 5880 5879 5879 5879 5879 5879 5880 5880 5880 5881 5881 5881 5881 5881 5882 5882 5882 5882 5882 5882 5881 5881 5881 5881 5881 5880 5880
5885 5885 5885 5886 5886 5886 5885 5884 5883 5882 5881 5880 5879 5878 5876 5875 5874 5874 5874 5874 5874 5874 5874 5875 5876 5876 5876 5876 5876 5876 5877 5878 5878 5878 5878 5878 5878 5878 5878 5877 5877 5877 5877
5880 5880 5881 5881 5881 5882 5881 5880 5879 5878 5877 5875 5873 5872 5871 5870 5869 5868 5868 5868 5869 5869 5869 5869 5870 5871 5871 5871 5871 5872 5872 5873 5873 5874 5874 5874 5873 5873 5874 5873 5873 5873 5873
5874 5874 5876 5876 5876 5876 5876 5876 5875 5873 5872 5870 5869 5867 5866 5864 5863 5862 5862 5863 5863 5863 5864 5864 5865 5866 5866 5866 5867 5867 5867 5867 5868 5869 5869 5869 5869 5869 5869 5869 5869 5869 5869
5871 5870 5871 5872 5872 5871 5871 5870 5869 5868 5867 5865 5864 5862 5861 5859 5858 5857 5857 5857 5858 5858 5859 5859 5860 5861 5861 5861 5861 5861 5862 5862 5862 5863 5863 5864 5864 5864 5864 5864 5864 5864 5864
5867 5867 5867 5867 5868 5866 5866 5865 5864 5863 5861 5860 5858 5857 5855 5854 5853 5852 5852 5852 5852 5853 5854 5854 5855 5855 5856 5856 5856 5856 5856 5857 5857 5857 5858 5858 5859 5859 5859 5859 5859 5859 5859
5864 5864 5863 5863 5863 5861 5861 5860 5859 5858 5856 5855 5853 5851 5850 5848 5847 5846 5846 5846 5846 5847 5847 5848 5849 5850 5850 5850 5850 5851 5851 5851 5851 5851 5852 5853 5853 5853 5854 5854 5854 5854 5854
5860 5860 5859 5859 5857 5856 5856 5855 5854 5853 5852 5850 5848 5846 5844 5843 5842 5841 5840 5840 5840 5841 5841 5842 5843 5844 5844 5845 5845 5845 5846 5846 5846 5846 5846 5847 5847 5847 5847 5848 5848 5848 5848
5856 5855 5854 5854 5853 5852 5851 5850 5849 5848 5847 5846 5843 5841 5839 5838 5836 5836 5835 5835 5835 5836 5836 5836 5837 5838 5838 5838 5839 5839 5840 5841 5841 5841 5841 5841 5841 5841 5842 5842 5842 5842 5842
5851 5850 5850 5849 5848 5847 5846 5845 5844 5843 5841 5840 5839 5836 5835 5833 5831 5831 5830 5830 5830 5830 5830 5830 5831 5831 5832 5832 5833 5834 5834 5835 5835 5836 5835 5835 5835 5835 5835 5836 5836 5836 5836
5846 5845 5845 5844 5843 5843 5841 5840 5839 5837 5836 5835 5833 5832 5830 5828 5827 5826 5824 5824 5824 5824 5824 5824 5825 5825 5825 5826 5826 5827 5828 5828 5829 5829 5829 5829 5829 5829 5829 5829 5829 5829 5829
5840 5840 5839 5839 5838 5837 5836 5835 5833 5832 5830 5829 5828 5827 5825 5823 5822 5820 5818 5817 5817 5817 5818 5818 5818 5818 5819 5819 5820 5820 5821 5821 5822 5823 5823 5823 5823 5823 5823 5823 5823 5823 5824
5835 5834 5834 5833 5832 5831 5830 5829 5827 5826 5824 5823 5822 5820 5819 5817 5816 5814 5811 5810 5811 5811 5811 5811 5811 5812 5812 5813 5813 5813 5814 5815 5815 5816 5816 5817 5817 5817 5817 5817 5817 5817 5817